Location: Palleja
(41.4200°N, 2.0000°E)
Time: 07:35:09
(UTC+02:00)

Tiangong 1 - Visible Passes

Search period start: 22 August 2017 00:00
Search period end: 01 September 2017 00:00
Orbit: 312 x 337 km, 42.8° (Epoch: 21 August)

Date Brightness Start Highest point End Pass type
(mag) Time Alt. Az. Time Alt. Az. Time Alt. Az.
22 Aug 0.9 21:34:01 10° W 21:36:45 60° SSW 21:38:30 20° ESE visible
23 Aug 2.1 21:50:38 10° W 21:53:07 29° SSW 21:54:05 23° SSE visible
24 Aug 3.2 22:07:43 10° WSW 22:09:17 14° SSW 22:09:39 14° SSW visible
26 Aug 3.2 21:04:39 10° WSW 21:06:28 16° SSW 21:08:16 10° S visible
